STARLINK-32398, 61624

Orbit data source: Space-Track

STARLINK-32398, 61624 is a payload satellite owned by SpaceX/Seattle (US) in LEO that was launched on Wed, 23 Oct 2024 UTC via an FALCON 9 launch vehicle from the Air Force Eastern Test Range (AFETR). Payload-class satellites include a variety of spacecraft equipped with specific instruments for various scientific and technological missions. These include communications satellites like Starlink; space stations such as the ISS; scientific satellites like the Hubble; Earth observation satellites from companies like Planet Labs, Umbra, and HawkEye 360; GPS; miniature CubeSats for education and research; and military/defense satellites.

Loading next visibility...
Identifier
61624, 2024-191D
Orbit
LEO
Last TLE update
17 hours ago
Origin
Manufacturer
SpaceX/Seattle
Mission
Operational Commercial Communications
Bus & Motor
STARLINK V2M, Unknown motor
Mass
730 kg wet, ~700 kg dry
Launch date (UTC)
2024-10-23 (8 months ago)
Launch vehicle
FALCON 9
Launch site
Air Force Eastern Test Range (AFETR)
Object type
Payload
Rocket body
Debris
Shape & HBR
Box + 2 Pan, 29 m
Radar Cross Section
36.964 m², Large (>1 m²)

Expand to show TLE details & history

TLE from 17 hours ago
0 STARLINK-32398
1 61624U 24191D   25188.14763429  .00003668  00000-0  14283-3 0  9990
2 61624  43.0026 101.2208 0001178 266.4051  93.6666 15.27564608 39980
Epoch: 2025-07-07T03:32Z
TLE epoch observation values (Epoch: 2025-07-07T03:32:35.602Z)
Latitude
-0.00002°
Longitude
122.71129°
Altitude
482.923 km
Speed
7.626 km/s
True Right ascension
06h 44m 52s
True Declination
0° 00' 00"
Sunlit
Object was in daylight at epoch
Visualization orbit readout
Latitude
-39.98024°
Longitude
2.16065°
Altitude
494.363 km
Speed
7.618 km/s
Apparent Right ascension
21h 35m 35s
Apparent Declination
-41° 05' 42"
Sunlit
Object is in full shadow
Visualization observer readout
Local Sidereal Time
08:23:13
Azimuth
259.238° W
Elevation
-76.217°
Doppler factor
1
Orbital elements
Apogee altitude
485.848 km
Perigee altitude
484.231 km
Semi-major axis
6,863.177 km
Eccentricity
0.00012
Inclination
43.0026°
RAAN
101.2208°
Arg. of periapsis
266.4051°
True anomaly
Unknown
Mean anomaly
93.6666°
Eccentric anomaly
Unknown
Mean motion
3.81729 °/min
Orbital period
94.31 mins
BSTAR
0.00014283
Loading maneuver chart data...
Loading SW <> Apogee altitude chart data...
Loading historical data...
Loading historical data...
Loading historical data...
Loading historical data...
Loading historical data...
Loading historical data...
Loading historical data...

STARLINK-32398 Visibility forecast

Observer location: undefined°, undefined°

Span
Click to sort rows by Start time (UTC) header in descending order
Start Az.
Max El. time (UTC)
Max El. Az.
Max El.
End time (UTC)
End Az.
5 mins2025-07-07 20:59:29.539Z198.883° SSW2025-07-07 21:02:29.539Z140.824° SSE22.141°2025-07-07 21:04:29.539Z100.391° ESE
6 mins2025-07-07 22:38:29.539Z253.198° W2025-07-07 22:40:29.539Z260.064° W42.555°2025-07-07 22:44:29.539Z71.601° E
6 mins2025-07-08 00:17:29.539Z287.567° WNW2025-07-08 00:20:29.539Z23.548° NE36.945°2025-07-08 00:23:29.539Z76.255° E
5 mins2025-07-08 01:57:29.539Z290.297° WNW2025-07-08 01:59:29.539Z85.591° E44.325°2025-07-08 02:02:29.539Z106.585° ESE
4 mins2025-07-08 03:36:29.539Z248.353° W2025-07-08 03:37:29.539Z225.846° WSW22.191°2025-07-08 03:40:29.539Z162.984° S
|